Weather History for Findlay, OH

Change the Weather History Date:

Tuesday, February 5, 2013

  Actual Average Record
Temperature  
Mean Temperature 22 °F -  
Max Temperature 28 °F 30 °F 57 °F (2008)
Min Temperature 15 °F 17 °F -9 °F (2009)
Degree Days  
Heating Degree Days 44    
Moisture  
Dew Point 21 °F    
Average Humidity 91    
Maximum Humidity 100    
Minimum Humidity 72    
Precipitation  
Precipitation 0.03 in - - ()
Sea Level Pressure  
Sea Level Pressure 29.90 in    
Wind  
Wind Speed 6 mph (WSW)    
Max Wind Speed 10 mph    
Max Gust Speed -    
Visibility 4 miles    
Events Fog , Snow    
Averages and records for this station are not official NWS values.
T = Trace of Precipitation, MM = Missing Value Source: NWS Daily Summary

Daily Weather History Graph

Daily Weather History Graph

Search for Another Location

Airport:

Trip Planner

Search our weather history database for the weather conditions in past years. The results will help you decide how hot, cold, wet, or windy it might be!

Date:

Astronomy

Feb. 05, 2013 Rise Set
Actual Time 7:40 AM EST 5:57 PM EST
Civil Twilight 7:12 AM EST 6:25 PM EST
Nautical Twilight 6:39 AM EST 6:58 PM EST
Astronomical Twilight 6:07 AM EST 7:30 PM EST
Moon 3:22 AM EST (2/5) 1:12 PM EST (2/5)
Length of Visible Light 11h 13m
Length of Day
10h 16m
Waning Crescent, 27% of the Moon is Illuminated
Feb 5
Waning Crescent
Feb 10
New
Feb 17
First Quarter
Feb 25
Full
Mar 4
Last Quarter

Hourly Weather History & Observations

Time (EST) Temp. Windchill Dew Point Humidity Pressure Visibility Wind Dir Wind Speed Gust Speed Precip Events Conditions
12:53 AM 23.0 °F 13.1 °F 21.0 °F 92% 29.90 in 6.0 mi North 9.2 mph - N/A   Overcast
1:13 AM 23.0 °F 14.7 °F 21.2 °F 93% 29.87 in 6.0 mi North 6.9 mph - N/A   Overcast
1:43 AM 21.2 °F 11.7 °F 19.4 °F 93% 29.87 in 6.0 mi NNE 8.1 mph - N/A   Overcast
1:53 AM 21.9 °F 13.4 °F 19.9 °F 92% 29.90 in 5.0 mi North 6.9 mph - N/A   Overcast
2:01 AM 21.2 °F 13.6 °F 19.4 °F 93% 29.88 in 5.0 mi NNE 5.8 mph - N/A   Overcast
2:53 AM 21.9 °F 15.7 °F 19.9 °F 92% 29.91 in 5.0 mi North 4.6 mph - N/A   Overcast
3:53 AM 21.0 °F 13.4 °F 19.0 °F 92% 29.92 in 6.0 mi North 5.8 mph - N/A   Overcast
4:06 AM 21.2 °F 14.9 °F 19.4 °F 93% 29.90 in 5.0 mi North 4.6 mph - 0.00 in Snow Light Snow
4:53 AM 21.0 °F 14.6 °F 18.0 °F 88% 29.91 in 5.0 mi North 4.6 mph - 0.00 in Snow Light Snow
5:11 AM 21.2 °F - 17.6 °F 86% 29.89 in 7.0 mi Calm Calm - 0.00 in   Overcast
5:53 AM 21.0 °F - 18.0 °F 88% 29.90 in 7.0 mi Calm Calm - 0.00 in   Mostly Cloudy
6:53 AM 19.0 °F - 17.1 °F 92% 29.91 in 6.0 mi Calm Calm - N/A   Mostly Cloudy
7:53 AM 17.1 °F 11.7 °F 16.0 °F 96% 29.94 in 2.0 mi West 3.5 mph - N/A   Mostly Cloudy
8:00 AM 17.6 °F - 15.8 °F 93% 29.90 in 1.0 mi Calm Calm - N/A   Scattered Clouds
8:05 AM 17.6 °F - 15.8 °F 93% 29.90 in 0.2 mi Calm Calm - N/A Fog Light Freezing Fog
8:12 AM 15.8 °F - 15.8 °F 100% 29.90 in 0.2 mi Calm Calm - N/A Fog Light Freezing Fog
8:53 AM 18.0 °F 9.8 °F 17.1 °F 96% 29.95 in 0.2 mi NW 5.8 mph - N/A Fog Light Freezing Fog
9:00 AM 19.4 °F 11.5 °F 17.6 °F 93% 29.92 in 0.2 mi NW 5.8 mph - N/A Fog Light Freezing Fog
9:53 AM 19.0 °F 13.9 °F 19.0 °F 100% 29.95 in 0.2 mi WNW 3.5 mph - N/A Fog Light Freezing Fog
10:36 AM 19.4 °F 14.3 °F 19.4 °F 100% 29.93 in 0.5 mi SW 3.5 mph - N/A Fog Light Freezing Fog
10:53 AM 19.9 °F - 19.0 °F 96% 29.95 in 0.5 mi Calm Calm - N/A Fog Light Freezing Fog
11:17 AM 19.4 °F - 19.4 °F 100% 29.92 in 1.0 mi Calm Calm - N/A   Overcast
11:32 AM 19.4 °F 12.8 °F 19.4 °F 100% 29.91 in 0.8 mi South 4.6 mph - N/A   Overcast
11:44 AM 19.4 °F 12.8 °F 19.4 °F 100% 29.90 in 1.2 mi SSW 4.6 mph - N/A   Overcast
11:53 AM 19.9 °F 11.1 °F 18.0 °F 92% 29.93 in 2.0 mi SSW 6.9 mph - N/A   Mostly Cloudy
12:04 PM 21.2 °F 14.9 °F 19.4 °F 93% 29.89 in 2.0 mi SSW 4.6 mph - N/A   Mostly Cloudy
12:26 PM 21.2 °F 13.6 °F 19.4 °F 93% 29.88 in 3.0 mi SSW 5.8 mph - N/A   Scattered Clouds
12:53 PM 23.0 °F 13.1 °F 19.0 °F 85% 29.89 in 7.0 mi South 9.2 mph - N/A   Clear
1:53 PM 25.0 °F 17.1 °F 21.0 °F 85% 29.88 in 8.0 mi South 6.9 mph - N/A   Overcast
2:53 PM 27.0 °F 17.3 °F 21.0 °F 78% 29.86 in 10.0 mi South 10.4 mph - N/A   Overcast
3:53 PM 28.0 °F 18.6 °F 19.9 °F 72% 29.85 in 9.0 mi South 10.4 mph - N/A   Overcast
4:53 PM 27.0 °F 18.7 °F 21.0 °F 78% 29.84 in 7.0 mi South 8.1 mph - N/A   Overcast
5:53 PM 28.0 °F 20.8 °F 21.0 °F 75% 29.85 in 10.0 mi SSW 6.9 mph - N/A   Overcast
6:27 PM 28.4 °F 19.7 °F 21.2 °F 74% 29.86 in 2.5 mi WSW 9.2 mph - 0.00 in Snow Light Snow
6:35 PM 26.6 °F 18.2 °F 21.2 °F 80% 29.87 in 1.2 mi WSW 8.1 mph - 0.00 in Snow Light Snow
6:46 PM 26.6 °F 18.2 °F 24.8 °F 93% 29.87 in 0.8 mi WSW 8.1 mph - 0.01 in Snow Light Snow
6:53 PM 26.1 °F 18.4 °F 24.1 °F 92% 29.89 in 0.8 mi SW 6.9 mph - 0.01 in Snow Light Snow
7:08 PM 26.6 °F 19.1 °F 24.8 °F 93% 29.87 in 1.0 mi SW 6.9 mph - 0.01 in Snow Light Snow
7:20 PM 26.6 °F 20.0 °F 24.8 °F 93% 29.87 in 2.5 mi SW 5.8 mph - 0.01 in Snow Light Snow
7:41 PM 26.6 °F 21.2 °F 24.8 °F 93% 29.88 in 3.0 mi SW 4.6 mph - 0.02 in Snow Light Snow
7:53 PM 25.0 °F 18.1 °F 24.1 °F 96% 29.91 in 2.5 mi SSW 5.8 mph - 0.02 in Snow Light Snow
8:09 PM 24.8 °F 17.9 °F 23.0 °F 93% 29.88 in 2.0 mi SSW 5.8 mph - 0.00 in Snow Light Snow
8:30 PM 24.8 °F 17.9 °F 23.0 °F 93% 29.88 in 3.0 mi SSW 5.8 mph - 0.00 in   Overcast
8:53 PM 26.1 °F - 25.0 °F 96% 29.92 in 3.0 mi Calm Calm - 0.00 in   Overcast
9:23 PM 26.6 °F - 24.8 °F 93% 29.91 in 3.0 mi Calm Calm - N/A   Overcast
9:53 PM 28.0 °F 20.0 °F 26.1 °F 92% 29.94 in 4.0 mi West 8.1 mph - N/A   Overcast
10:29 PM 28.4 °F 21.2 °F 26.6 °F 93% 29.93 in 4.0 mi West 6.9 mph - N/A   Overcast
10:53 PM 28.9 °F 21.1 °F 26.1 °F 89% 29.96 in 5.0 mi West 8.1 mph - N/A   Overcast
11:29 PM 28.4 °F 19.7 °F 26.6 °F 93% 29.95 in 4.0 mi West 9.2 mph - N/A   Overcast
11:42 PM 28.4 °F 19.1 °F 26.6 °F 93% 29.95 in 4.0 mi West 10.4 mph - N/A   Overcast
11:53 PM 28.9 °F 20.4 °F 26.1 °F 89% 29.98 in 5.0 mi West 9.2 mph - N/A   Overcast